sat.trackr.live / text

‹ back to catalog

STARLINK-1260

NORAD 45404 · 2020-019AW

PAYLOAD ACTIVE UNKNOWN

§ Identity

Operator
Country
US
Launch date
2020-03-18
Launch site
AFETR
Launch vehicle
Mass (kg)
RCS (m²)

Purposes: comms

External: N2YO · Heavens-Above · Gunter

§ Orbital elements

Epoch: 2026-09-03T18:48:47.562048Z

Period
93.19 min
Inclination
53.1534°
Eccentricity
0.0002036
Mean motion
15.45209577 rev/d
Perigee alt
429.4 km
Apogee alt
432.1 km
Semi-major
6,808.9 km
B*
4.8621e-4
RAAN
12.4164°
Arg perigee
359.3356°
Mean anomaly
0.7648°
Rev number
35,737

§ Raw data

STARLINK-12601 45404U 20019AW  26246.78388382  .00023100  00000+0  48621-3 0  99952 45404  53.1534  12.4164 0002036 359.3356   0.7648 15.45209577357378

JSON: /api/v1/satellites/45404 · /tle

For live sub-satellite position, see the globe view (requires WebGL).

§ Visibility from observer

Set your observer location to see the next 7 days of passes ≥ 10°. The values pass through the URL so the page stays shareable.

No JS? Fill the form by hand. The geolocation button needs JavaScript.